Theta_e
317 317 318 318 316 316 316 319 319 318 316 317 316 315 314 316 316 317 318 320 321 322 321 320 320 322 321 322 323 324 325 325 325 325 327 329 328 328 328 328 328 326 324 322
317 316 313 314 315 319 318 319 318 317 316 315 314 314 312 313 314 316 317 318 320 320 320 319 319 318 319 319 320 321 322 323 324 324 325 326 326 327 327 328 328 328 328 326
314 313 313 315 316 318 318 319 317 318 316 314 312 313 311 311 312 315 316 317 316 317 317 317 316 316 316 317 318 319 321 322 323 323 324 326 327 327 327 327 326 325 327 328
314 314 314 314 315 316 318 316 317 318 317 317 312 314 311 312 311 310 314 314 314 315 314 314 314 315 316 317 317 316 320 320 320 322 323 324 325 325 323 324 324 325 325 326
311 313 312 315 315 314 316 315 316 316 316 314 314 313 310 309 310 309 311 313 313 316 317 317 315 316 316 317 317 318 318 319 319 319 320 320 322 324 324 326 326 325 325 325
309 311 311 311 314 313 316 316 316 316 315 315 312 312 311 309 309 308 309 311 313 318 317 317 316 316 315 315 315 317 319 321 321 321 320 320 321 322 325 325 326 326 326 326
311 310 310 312 314 313 316 315 310 312 318 314 310 312 312 309 308 308 309 313 314 315 314 314 314 314 314 315 315 315 315 315 314 314 316 319 321 322 323 323 324 325 326 326
311 313 310 309 312 313 315 316 310 311 313 312 310 313 312 310 311 312 312 312 313 313 313 314 315 315 314 314 314 314 315 315 315 315 315 315 313 313 316 322 324 325 325 325
307 308 308 309 312 312 313 316 310 311 305 308 310 309 309 309 310 310 311 314 314 312 313 314 315 315 315 314 314 313 313 313 313 313 313 314 315 313 310 312 317 319 321 323
308 309 308 309 311 312 312 311 315 313 313 312 310 311 312 310 310 310 310 314 310 311 314 315 315 314 313 313 313 312 311 311 311 312 312 312 313 314 314 313 312 310 309 313
308 308 309 311 312 311 315 315 314 312 308 310 308 308 305 309 308 307 307 311 312 313 314 314 314 313 313 313 312 312 311 310 310 310 311 311 311 312 312 313 314 314 313 311
308 308 307 309 309 310 311 314 314 315 312 310 310 310 307 307 309 308 307 309 311 314 314 314 313 313 312 312 312 311 310 309 310 310 310 310 310 310 311 312 313 313 313 311
309 310 305 305 308 309 311 312 313 313 309 312 314 313 306 307 310 312 313 313 313 313 313 313 312 311 312 311 310 309 309 309 309 309 310 310 310 311 311 311 312 312 311 309
310 305 308 309 308 308 312 311 312 313 315 313 313 312 308 309 309 310 312 313 313 313 312 311 311 312 311 309 309 309 309 308 308 308 308 309 309 310 310 310 310 310 308 308
309 305 308 308 309 310 310 311 311 312 313 312 312 311 310 308 306 309 310 312 312 312 311 311 311 310 309 308 308 308 308 308 308 308 308 307 308 308 308 308 307 307 307 307
307 304 306 308 307 308 306 308 309 311 311 311 311 311 310 309 310 310 310 311 312 312 311 311 311 309 307 307 307 307 307 307 308 308 308 307 306 307 307 308 307 306 306 307
308 303 304 309 307 306 309 308 309 310 310 310 311 311 309 307 307 309 310 311 311 312 311 311 309 308 306 305 305 306 306 306 306 306 306 307 307 306 305 306 306 307 306 305
308 309 309 309 304 311 309 308 307 309 310 309 310 310 309 309 310 311 311 311 311 311 310 308 307 305 304 304 305 305 305 305 305 305 305 305 305 306 306 305 305 306 307 307
308 308 310 310 310 307 305 303 307 307 309 308 309 310 310 309 310 310 310 310 311 309 307 305 303 303 304 304 304 304 303 303 303 303 304 304 305 306 306 306 305 305 306 306
306 308 310 309 311 311 308 303 304 304 309 307 308 308 308 305 307 308 307 308 308 307 304 303 303 303 302 301 301 300 300 300 301 301 301 302 303 304 305 306 306 304 304 304
307 308 310 311 310 304 303 302 304 305 305 303 306 307 306 304 307 306 307 306 305 303 302 302 301 300 299 299 299 299 298 298 298 298 298 299 299 301 303 304 305 305 305 304
307 307 307 309 310 309 302 302 305 305 305 305 305 305 305 305 305 305 306 304 301 301 300 299 298 298 298 297 297 297 297 297 296 296 296 296 297 298 299 300 302 304 304 305
306 305 307 307 307 304 304 306 306 306 306 305 306 307 306 305 303 303 301 300 300 299 298 297 297 297 296 296 296 296 296 296 295 295 295 294 294 295 295 297 298 300 301 302
302 302 304 305 304 302 303 306 306 305 305 306 306 306 306 305 303 301 300 298 297 296 296 296 296 296 295 295 295 295 295 295 295 294 294 293 293 293 293 294 296 296 294 295
303 301 300 302 302 301 303 304 304 305 305 304 305 305 305 304 300 299 298 297 296 296 295 295 296 295 295 294 294 294 294 294 293 293 293 293 293 293 293 293 294 295 295 294
299 301 304 307 305 304 304 305 304 304 304 303 304 302 301 300 299 297 295 295 295 294 294 294 294 294 294 294 294 293 292 292 292 292 292 292 292 293 292 293 294 294 294 294
Wind_Speed
6 9 14 16 3 4 3 4 6 3 4 3 7 8 10 23 22 23 28 32 34 34 33 32 29 26 24 21 21 19 23 28 33 35 38 40 39 37 37 36 36 37 36 35
3 12 7 3 4 3 3 2 3 5 4 3 7 11 11 17 17 28 29 29 31 34 36 36 36 35 34 31 27 26 25 26 27 30 34 38 38 38 37 38 38 36 37 38
5 2 18 6 3 5 5 7 3 5 7 4 6 10 8 9 11 25 29 34 36 38 39 37 28 22 28 35 36 32 26 23 24 27 36 39 41 40 38 37 36 34 37 39
7 12 5 5 6 6 12 6 4 3 4 4 3 7 5 5 8 7 26 31 31 28 30 34 30 25 20 19 23 28 32 30 27 25 32 37 41 42 37 38 38 37 36 36
6 5 10 8 5 7 8 6 8 4 4 4 1 3 6 3 6 10 21 30 22 17 23 24 16 12 13 11 10 13 18 23 26 30 31 32 35 39 40 43 44 41 39 38
5 1 4 7 4 8 2 3 3 2 1 7 7 5 4 4 6 5 9 15 11 9 8 5 2 5 7 6 4 4 7 10 14 19 24 29 32 35 39 41 44 44 43 41
4 8 1 3 5 2 8 5 1 2 4 6 1 5 12 7 10 7 12 15 4 10 7 17 16 14 10 8 6 4 3 4 7 11 18 21 25 28 33 36 38 40 43 45
9 4 13 8 8 7 12 8 5 7 4 4 2 8 6 8 18 20 24 23 18 11 12 13 13 11 8 6 3 0 3 5 7 10 11 13 16 23 28 31 34 37 39 40
6 6 2 3 6 12 6 14 7 3 1 2 5 7 8 10 12 17 10 9 7 16 13 12 10 8 5 3 4 5 7 10 12 14 15 17 19 20 21 25 28 32 35 38
6 2 5 13 6 10 7 7 5 4 4 5 5 5 7 8 8 8 8 6 11 16 14 13 9 5 4 6 8 11 13 14 16 17 19 20 20 22 24 26 27 28 32 35
5 4 2 6 10 17 7 8 5 4 5 5 2 6 7 9 9 9 10 13 17 16 15 11 6 3 5 9 12 14 16 17 18 20 21 21 22 23 24 27 29 30 30 31
6 3 4 9 2 4 18 15 13 6 7 6 1 8 3 4 0 9 10 9 22 17 13 8 3 2 6 10 13 15 16 17 19 20 22 22 22 23 24 26 27 28 30 31
13 5 1 6 3 2 9 15 15 16 2 11 7 10 2 4 6 11 13 13 16 15 11 7 4 2 7 10 10 11 14 16 18 18 19 20 21 21 21 22 24 25 26 28
24 4 10 13 4 6 9 10 17 14 10 19 12 22 4 2 6 3 6 9 12 11 10 8 4 6 8 9 9 10 12 14 15 17 17 18 19 20 21 20 20 22 23 25
11 8 13 18 2 2 5 16 16 18 22 13 23 20 20 11 9 15 12 8 13 15 14 11 10 10 10 9 8 8 9 11 13 15 17 18 19 20 21 21 21 21 21 22
6 6 8 14 13 8 3 6 13 20 25 20 27 23 25 18 21 16 20 15 17 20 18 16 16 15 12 11 10 10 11 13 15 17 18 19 20 20 21 21 21 21 21 20
11 6 4 11 15 4 7 17 19 15 17 15 18 29 6 9 12 23 25 25 28 28 25 22 20 16 14 11 9 11 12 14 15 17 19 20 21 22 22 23 23 23 23 23
12 15 8 11 4 16 14 21 16 17 17 19 21 24 17 20 23 22 26 32 30 25 25 22 18 15 10 9 10 11 13 15 16 17 18 20 21 23 24 25 25 25 24 24
15 12 12 9 14 5 5 7 18 14 27 17 20 29 30 15 13 28 33 31 28 22 18 18 15 12 9 9 10 11 13 15 17 19 20 21 22 23 23 24 26 27 27 25
10 10 16 4 13 11 17 7 17 6 14 19 28 26 21 16 8 20 23 24 23 20 18 16 12 10 8 8 9 10 11 13 16 19 21 22 23 24 24 24 25 26 26 26
12 11 19 19 8 6 8 3 19 9 11 9 35 42 18 10 22 10 19 23 22 20 17 13 10 8 6 6 8 11 14 16 18 20 21 23 24 25 25 25 25 26 26 26
10 5 5 5 3 5 11 7 11 13 2 10 12 22 25 27 21 17 22 25 23 19 16 13 10 8 7 8 10 13 16 18 20 22 23 24 26 27 27 27 25 25 25 25
7 8 9 10 8 2 27 15 27 12 14 15 15 14 17 20 19 22 26 24 21 18 15 12 10 8 9 11 13 15 18 20 22 23 24 25 26 27 27 28 28 27 25 25
4 5 5 3 6 8 25 28 26 25 18 15 14 13 15 19 22 25 25 22 19 17 14 12 10 9 10 12 16 19 21 23 25 26 27 28 28 27 26 26 26 26 26 26
6 2 6 4 4 3 17 32 24 20 19 17 16 16 19 21 24 23 24 22 19 15 12 10 10 11 13 15 18 21 23 24 26 28 29 28 28 27 26 25 25 26 23 21
7 7 6 7 16 12 9 18 25 24 23 21 22 24 21 22 23 22 19 16 14 12 10 10 11 13 16 19 21 22 23 24 25 25 26 27 28 27 27 26 26 21 21 20
Wind_Direction
186 206 212 212 201 205 156 184 231 298 265 262 243 262 267 277 282 276 272 266 267 269 271 272 266 261 266 263 264 265 260 259 260 258 257 255 258 262 262 265 265 264 262 259
145 227 214 210 202 234 214 230 263 290 277 217 279 268 263 261 260 270 273 270 265 267 270 274 275 265 261 262 263 267 264 262 261 260 261 262 263 264 267 268 268 269 268 265
186 248 195 184 185 201 225 233 226 239 320 284 303 273 237 259 242 254 259 262 264 268 274 278 280 277 267 263 261 261 263 265 265 266 262 260 261 263 266 270 275 278 271 269
227 240 144 178 209 164 247 185 195 247 328 262 9 292 248 242 263 252 264 266 264 271 279 279 279 277 284 267 251 249 252 262 264 266 265 263 263 265 277 280 281 281 280 278
224 193 200 215 194 180 232 173 212 231 249 304 202 292 277 316 277 264 261 265 275 279 281 273 276 271 275 272 259 255 251 255 259 261 263 265 265 268 273 273 275 278 281 281
218 180 175 205 174 173 208 227 160 94 102 257 209 178 257 227 221 263 269 288 252 316 330 244 175 135 139 143 162 211 235 243 249 253 257 261 264 267 269 271 273 276 277 279
192 236 244 152 166 125 198 155 285 273 217 236 355 206 250 273 258 235 273 289 335 347 108 117 115 111 117 131 137 147 181 237 257 264 263 269 272 274 275 275 275 276 278 280
198 224 205 188 200 186 199 179 170 202 209 242 141 234 249 245 278 275 270 277 285 272 158 123 115 115 101 96 103 192 271 281 283 287 284 282 280 274 274 274 276 278 278 279
173 252 202 193 169 169 191 209 179 95 25 51 228 292 291 264 279 277 276 286 249 167 152 134 126 118 101 67 11 343 325 312 302 295 288 283 283 285 283 277 274 275 276 278
202 234 203 204 173 219 188 151 178 187 212 235 255 266 235 297 280 262 273 225 183 154 141 141 137 122 65 18 356 341 328 319 311 305 300 296 289 283 283 285 288 287 284 280
165 148 332 121 204 197 188 203 203 183 174 205 268 256 216 233 274 274 260 223 185 161 152 151 138 78 9 352 342 336 328 319 312 306 300 294 291 287 285 283 283 285 286 285
179 150 194 213 284 243 222 220 201 202 212 240 265 256 275 197 355 83 51 158 161 156 156 162 166 356 342 339 336 331 327 321 312 307 305 302 297 292 290 288 286 285 286 286
173 195 93 333 337 212 210 217 216 222 77 214 210 257 271 229 120 108 114 129 149 164 170 185 212 288 319 320 316 321 325 323 316 312 309 308 307 304 299 293 288 286 287 287
168 158 205 219 217 150 211 198 211 212 230 239 229 250 249 124 140 138 138 162 183 194 204 210 245 286 293 293 303 315 316 320 326 328 326 321 315 313 309 306 301 296 293 291
183 207 213 237 356 184 216 214 210 213 231 224 243 243 245 236 227 230 232 227 221 221 222 232 253 264 277 282 292 300 310 318 324 330 330 332 329 322 316 311 307 303 301 299
211 240 185 244 232 213 223 209 214 218 227 233 244 252 251 236 234 232 233 240 225 224 228 242 261 273 283 287 292 305 316 323 326 325 327 329 331 331 328 321 315 311 307 304
197 176 147 237 223 154 233 228 215 224 227 220 229 240 209 222 206 221 229 229 238 250 241 242 248 261 270 276 294 306 313 319 322 322 324 327 329 329 330 332 329 321 317 314
208 212 202 239 124 223 226 241 210 212 227 222 240 254 241 241 233 237 242 245 250 254 244 237 241 244 256 280 296 306 313 316 318 322 326 326 327 330 331 331 331 330 326 322
223 215 226 223 225 253 268 207 197 185 238 214 222 243 244 225 231 248 242 240 246 244 232 225 220 228 243 264 283 296 303 308 315 320 323 326 328 328 329 330 331 330 329 330
223 234 218 195 228 220 222 215 187 134 250 222 218 242 246 160 208 250 236 230 228 221 211 209 218 234 257 281 299 310 319 324 327 329 333 331 330 329 329 329 330 331 330 330
210 214 222 217 226 269 248 140 145 142 235 184 206 226 227 197 226 253 212 204 204 202 203 209 218 229 245 275 299 310 316 320 324 325 326 328 330 329 327 325 325 327 328 327
214 220 208 207 249 235 175 116 183 215 264 191 194 217 218 221 221 214 200 191 191 194 195 200 207 225 255 280 298 308 313 315 318 320 322 323 324 325 326 325 322 322 324 325
231 211 205 197 206 158 180 186 198 230 214 206 199 199 205 199 196 186 181 184 187 191 195 202 218 245 269 287 299 304 308 310 313 315 317 318 319 320 322 322 324 324 326 326
246 236 209 109 216 203 198 203 204 211 221 223 217 207 197 189 181 178 178 180 185 191 201 215 234 256 277 293 302 306 309 311 312 313 314 315 314 314 316 317 320 321 325 327
172 251 184 258 283 177 211 216 217 212 219 213 199 197 191 190 179 181 178 182 191 202 215 235 258 275 291 302 305 307 308 309 310 311 311 310 312 313 313 313 315 316 319 319
176 185 204 217 238 217 239 228 219 215 207 198 190 185 187 189 185 181 185 191 201 214 233 257 279 291 296 298 300 302 306 308 311 312 313 313 312 312 313 313 309 308 308 306